Overview Statistics Trail Chart Weather Telemetry Raw packets
 

This is the latest recevied weather packets stored in our database for station/object PU2XNA. If no packets are shown the sender has not sent any weather packets the latest 10 day(s).

<< 12 13 14 15 16 17 18 >>
Time Temp. Humidity Pressure Rain* Wind** Luminosity Snow
1788256803 21.11° C 82% 1010.9 hPa - - - -
1788255903 20.56° C 84% 1010.2 hPa - - - -
1788255004 21.11° C 80% 1010.1 hPa - - - -
1788254104 22.22° C 77% 1009.9 hPa - - - -
1788253203 22.22° C 76% 1009.9 hPa - - - -
1788252302 22.22° C 76% 1010.2 hPa - - - -
1788251403 22.22° C 76% 1010.2 hPa - - - -
1788250502 22.22° C 77% 1009.6 hPa - - - -
1788249602 22.22° C 77% 1010.8 hPa - - - -
1788248702 22.78° C 75% 1010.1 hPa - - - -
1788247802 22.78° C 74% 1010 hPa - - - -
1788246908 23.33° C 74% 1009.7 hPa - - - -
1788246003 23.33° C 73% 1009.8 hPa - - - -
1788245103 23.89° C 72% 1009.1 hPa - - - -
1788244223 24.44° C 67% 1009.6 hPa - - - -
1788243304 25.56° C 66% 1009.2 hPa - - - -
1788242402 26.67° C 58% 1008.2 hPa - - - -
1788241502 27.22° C 55% 1006.8 hPa - - - -
1788240602 26.67° C 56% 1006.2 hPa - - - -
1788239703 27.22° C 55% 1006.5 hPa - - - -
1788238804 27.22° C 56% 1006.9 hPa - - - -
1788237904 26.67° C 57% 1005.6 hPa - - - -
1788237003 26.67° C 58% 1005.7 hPa - - - -
1788236103 26.11° C 59% 1006 hPa - - - -
1788235203 26.11° C 61% 1006.4 hPa - - - -

* Rain since midnight (hover to see other rain measurements)
** Current wind speed in m/s (hover to see current wind gust speed)